Theta_e
338 335 336 335 335 338 338 336 332 331 330 329 330 328 328 327 328 328 328 329 331 338 340 341 338 337 336 335 335 334 332 329 328 327 328 327 327 326 326 325 324 323 325
338 337 336 336 336 337 338 335 333 331 330 329 328 329 328 327 327 328 328 328 328 333 338 341 339 337 336 335 335 334 332 331 329 328 327 327 326 325 324 324 322 323 325
322 334 336 335 336 337 336 334 332 331 329 328 328 328 329 327 328 328 327 327 328 328 332 336 338 338 337 335 334 334 333 331 330 329 328 327 326 325 323 322 320 323 323
315 318 320 334 337 335 335 333 332 331 329 328 327 328 328 328 328 328 328 327 328 330 329 332 334 336 336 336 334 333 332 332 330 329 328 326 325 322 321 321 322 323 323
310 311 314 316 322 334 334 333 332 332 329 329 328 327 327 328 328 329 327 326 327 329 331 330 330 331 333 335 336 334 333 331 330 329 329 327 324 322 323 322 322 323 323
305 305 309 314 317 320 328 333 331 332 331 330 329 328 327 327 328 328 327 327 327 328 330 330 330 329 328 333 335 336 334 333 331 329 328 327 326 323 321 321 322 323 322
301 303 306 309 314 317 319 321 331 330 329 330 326 326 323 326 326 327 328 327 326 327 328 327 327 329 328 329 333 335 335 335 332 331 329 328 326 324 322 323 323 323 323
299 302 302 304 308 310 313 318 322 328 329 329 325 322 318 320 323 324 327 327 325 326 326 325 325 326 326 327 329 333 335 335 334 333 331 328 326 324 323 321 321 323 322
297 299 301 303 305 306 307 313 319 321 325 328 329 323 314 314 318 323 325 326 326 325 325 325 324 324 325 325 327 328 325 328 333 334 332 329 327 325 324 322 322 323 322
296 297 300 303 302 303 303 306 312 317 324 324 327 328 326 319 315 313 321 324 325 324 325 324 324 324 324 324 324 323 319 319 324 331 332 330 328 326 325 324 324 324 323
294 296 298 299 300 302 302 305 306 310 317 323 327 325 326 324 321 318 312 315 322 325 326 325 325 324 324 324 324 323 316 315 318 325 329 330 329 327 326 325 324 325 324
292 294 296 296 297 301 301 303 305 306 311 319 326 327 324 319 317 319 317 314 314 320 325 326 325 324 325 325 324 319 315 313 315 320 324 327 328 327 326 325 325 326 325
289 290 292 294 295 298 301 302 303 305 308 315 323 325 324 321 320 319 318 317 315 319 320 325 325 325 326 326 324 317 316 312 312 316 319 322 324 325 325 325 325 326 325
289 290 292 294 296 298 300 301 303 304 311 316 321 325 325 325 324 322 319 318 313 314 316 316 324 325 326 326 324 314 322 310 311 312 315 317 319 320 320 321 322 323 323
289 290 291 292 295 296 298 297 297 300 313 316 320 323 322 324 325 325 324 322 317 308 309 312 314 323 326 326 323 323 321 314 309 310 310 313 315 317 318 318 318 319 321
289 289 291 292 294 297 295 294 294 296 299 312 320 321 320 321 322 323 323 320 317 314 309 314 316 318 324 325 323 326 324 315 307 307 307 308 311 314 315 315 315 316 317
289 289 291 292 293 293 291 291 292 295 295 300 317 320 319 320 320 320 320 319 317 317 312 312 314 317 318 323 323 323 324 322 319 305 305 307 307 308 310 310 310 312 313
290 290 290 291 292 289 289 288 289 292 293 296 306 317 318 318 317 318 318 318 317 318 316 313 313 311 315 318 320 321 322 323 323 306 304 305 305 305 306 306 306 307 308
288 288 289 289 290 287 287 286 287 290 292 295 300 303 306 315 315 316 317 317 318 318 318 316 312 311 313 311 311 314 318 320 321 312 302 302 303 304 305 305 305 306 305
286 287 288 289 288 287 285 285 285 286 289 289 293 294 295 294 295 300 302 304 306 314 317 316 314 308 309 309 312 312 309 312 316 308 305 304 303 303 304 303 304 304 305
285 286 286 286 286 287 285 283 283 284 285 286 288 291 292 292 290 289 292 293 297 302 306 311 311 300 299 298 306 310 313 310 306 302 308 303 305 306 306 302 305 303 303
284 283 283 283 282 284 284 284 283 282 283 284 285 287 290 287 287 287 287 288 288 292 297 300 304 297 302 304 303 304 302 295 297 298 307 309 306 306 307 306 303 302 300
282 281 282 282 281 281 283 284 283 281 281 281 282 283 286 285 284 285 285 286 287 288 286 290 294 297 298 301 302 299 300 300 302 296 299 299 290 302 299 302 300 301 302
281 280 281 281 280 280 281 283 282 281 281 281 281 281 282 282 283 284 283 284 285 287 289 290 290 291 292 293 293 296 298 295 288 289 290 293 287 292 287 288 295 298 299
280 279 280 280 279 279 280 282 282 280 280 280 281 281 281 281 283 285 283 282 283 285 287 288 288 289 289 290 290 290 289 291 289 289 288 292 287 287 286 286 287 293 294
280 280 280 279 279 278 279 281 281 280 278 279 280 281 281 282 284 284 283 283 282 284 284 284 285 287 288 290 289 292 292 293 288 288 289 293 286 288 290 286 286 287 288
Wind_Speed
6 4 5 5 5 6 8 7 6 6 6 6 6 6 7 7 6 3 3 13 15 15 16 19 19 20 19 18 16 16 17 17 17 17 16 14 15 14 12 14 12 13 12
8 7 7 7 7 7 8 7 8 7 7 7 8 8 7 7 7 6 5 7 14 14 15 18 20 20 20 19 17 17 17 17 17 17 17 15 15 15 14 14 15 13 13
15 14 7 7 8 8 10 7 7 6 6 5 9 7 7 7 7 8 7 6 9 15 14 16 19 20 20 20 19 19 18 17 17 17 17 17 16 16 16 15 17 13 13
14 12 13 10 8 7 9 9 9 9 8 8 8 9 8 7 10 10 8 7 7 8 12 15 18 19 19 21 22 22 21 19 18 19 19 19 18 17 17 16 16 15 14
13 12 10 11 14 8 8 9 9 10 9 9 10 8 9 9 9 9 11 11 10 10 9 16 18 16 18 20 23 24 23 22 21 21 20 20 18 19 17 17 17 16 15
14 12 10 12 11 11 11 9 12 10 11 11 9 9 9 10 8 9 11 10 11 11 11 12 12 12 17 19 22 23 24 24 24 24 23 21 21 20 20 20 18 17 17
14 12 10 12 12 10 12 12 12 13 10 9 7 7 5 9 10 10 8 10 12 13 13 11 9 9 10 20 22 24 26 25 25 25 23 21 22 21 20 19 19 18 18
14 12 13 11 12 11 13 13 11 11 10 10 9 4 5 6 7 9 8 10 14 9 12 12 11 11 11 10 15 24 26 26 26 25 24 23 22 21 22 23 22 20 20
14 14 14 14 13 13 13 15 13 14 13 10 16 9 4 9 4 5 14 10 10 8 9 10 12 11 12 11 14 18 22 22 24 26 25 26 25 23 23 23 22 21 22
15 15 14 12 12 11 14 14 13 15 12 15 9 13 10 4 4 3 3 9 8 10 12 9 11 12 12 10 15 19 20 21 20 24 26 27 27 26 25 24 24 23 22
17 17 17 17 13 10 13 16 18 16 14 15 14 7 13 9 5 3 4 5 6 8 11 13 13 12 13 12 10 14 19 23 22 21 24 26 27 27 27 26 25 25 24
12 16 17 16 17 13 14 14 17 20 16 17 16 12 9 6 5 8 12 6 11 13 12 11 11 10 10 11 13 16 18 20 25 25 23 25 27 28 28 27 27 27 25
12 15 19 17 16 17 17 17 18 19 19 16 17 11 9 8 10 13 14 8 4 4 6 9 9 8 8 10 13 18 19 22 23 25 25 23 26 28 28 28 28 28 27
13 18 16 17 18 18 18 15 14 16 18 16 20 14 11 11 15 14 15 13 6 8 6 10 11 11 13 12 15 20 16 22 25 25 26 25 25 27 28 28 28 28 28
14 17 18 18 18 19 14 17 13 16 17 19 18 15 13 11 11 13 11 11 10 7 11 5 6 11 9 10 13 13 15 19 24 24 23 24 24 26 27 27 27 26 26
17 18 17 17 17 15 15 17 14 15 16 14 13 15 13 8 9 10 13 11 10 9 8 8 7 5 11 9 11 13 13 16 21 23 22 22 25 26 27 27 26 26 25
17 17 17 17 16 15 16 17 17 15 17 17 16 13 12 11 9 9 9 10 10 7 6 3 3 6 6 9 10 11 11 11 11 22 23 24 24 24 25 25 25 25 26
15 15 16 16 11 15 17 18 19 15 16 18 14 11 12 9 11 10 9 11 8 7 7 10 6 4 7 9 9 10 9 9 11 16 22 24 24 24 23 24 25 26 25
14 14 14 14 11 14 16 19 18 17 16 17 16 13 8 5 6 5 6 6 8 7 9 7 6 3 5 2 3 5 8 9 8 11 20 21 22 23 23 24 27 28 26
13 13 12 13 11 11 14 18 18 16 13 16 16 14 15 13 10 7 6 4 2 4 8 8 6 4 2 2 2 4 3 4 8 4 8 12 18 21 22 23 24 26 28
13 13 13 13 13 9 12 18 17 15 14 13 14 11 14 16 21 18 6 5 3 1 0 3 4 2 3 2 5 4 7 5 5 4 5 4 6 10 11 17 19 23 27
12 12 12 12 12 10 24 27 22 14 15 13 12 13 11 16 14 16 14 13 9 3 2 2 2 2 3 3 2 3 3 3 3 4 5 6 7 7 8 9 19 21 22
12 12 11 11 12 12 25 27 25 12 12 13 12 11 9 10 16 12 12 9 12 10 5 2 2 2 3 4 3 1 4 4 4 2 4 4 3 7 4 6 14 20 22
11 12 11 12 11 11 24 25 24 12 11 11 11 12 12 9 14 13 10 7 6 7 7 5 4 6 6 7 5 4 5 3 2 2 2 5 2 4 0 1 4 11 21
9 11 11 12 13 13 23 25 19 11 12 12 11 10 9 10 15 21 10 9 7 4 5 8 8 10 11 11 9 3 3 2 2 3 3 3 3 2 3 3 3 7 8
10 9 11 11 17 13 21 25 21 9 10 9 9 8 14 14 22 19 8 8 8 6 9 9 8 6 6 7 8 5 3 4 2 2 5 6 3 4 2 2 3 3 3
Wind_Direction
255 227 233 216 231 234 223 215 214 214 216 223 229 220 215 222 221 207 210 205 202 209 202 194 198 196 193 188 184 182 183 182 175 170 157 168 160 164 157 159 169 174 169
276 255 232 225 221 216 227 212 205 217 224 216 229 229 221 223 216 213 214 208 206 206 205 199 199 203 197 195 187 186 187 186 182 178 166 175 163 167 173 165 179 180 174
346 321 262 247 229 214 212 217 229 214 218 216 229 229 223 217 223 213 204 208 206 207 205 202 198 202 202 196 195 191 190 190 188 181 174 176 176 172 182 181 187 185 179
346 331 336 307 258 225 218 217 213 222 227 219 220 227 232 213 211 216 209 203 204 205 209 204 201 203 205 195 197 198 196 194 193 187 183 182 184 192 192 191 189 184 187
350 348 329 323 330 283 228 226 225 218 221 222 223 217 222 232 216 207 212 208 203 205 200 208 201 201 205 200 198 200 200 198 199 195 190 186 183 194 193 191 198 186 193
347 340 328 323 325 319 312 236 232 224 224 219 222 220 213 225 224 214 211 208 210 204 205 202 205 207 203 203 201 203 204 200 201 201 199 192 185 188 201 198 198 193 196
340 336 336 324 321 313 305 302 269 231 233 221 212 235 231 224 225 221 211 208 213 205 206 203 200 202 206 204 204 203 206 206 202 203 202 201 193 192 196 196 197 196 201
335 332 331 322 317 304 305 302 296 282 237 218 212 218 227 223 221 224 211 210 214 209 214 205 205 203 198 206 207 207 207 210 206 203 198 199 201 197 195 206 204 199 203
329 332 325 323 327 320 312 304 294 287 282 235 218 207 187 236 173 209 218 219 212 209 220 221 208 208 203 201 207 207 207 209 212 204 200 195 197 201 197 204 211 203 205
326 323 317 320 320 314 308 300 297 301 287 274 224 225 227 147 190 185 238 214 218 212 213 211 216 213 209 207 207 205 202 206 208 211 204 199 197 200 199 201 205 208 205
324 324 323 320 314 304 302 298 296 287 275 277 262 205 211 208 194 191 201 182 206 229 226 223 213 205 206 203 208 215 204 201 204 206 209 206 201 201 199 201 205 208 206
322 323 317 314 309 304 299 296 289 281 276 271 267 233 215 213 195 243 232 243 230 235 227 224 226 210 203 204 214 212 206 208 206 204 204 206 204 202 204 202 205 208 208
323 320 320 313 310 304 300 294 290 283 279 265 269 234 212 224 233 225 247 221 192 174 194 209 204 200 205 205 212 210 211 207 208 206 204 203 204 203 204 204 205 208 210
318 317 312 309 303 304 300 312 299 289 274 264 257 236 211 207 215 223 221 222 177 206 207 191 201 205 202 201 212 203 210 206 207 209 203 203 200 201 203 205 205 208 209
319 319 313 310 309 305 320 315 302 302 277 263 255 230 215 199 200 205 200 214 208 202 225 202 201 213 205 204 211 206 210 204 206 210 209 202 200 200 201 202 204 205 208
322 321 317 314 312 315 331 319 312 309 314 294 249 221 211 196 193 202 188 204 209 215 217 200 205 188 199 203 208 203 206 207 195 204 199 210 207 202 199 201 200 201 204
326 327 321 316 321 341 333 322 317 320 326 317 267 219 215 198 190 187 190 190 193 198 222 244 205 211 189 199 210 206 200 203 206 202 202 206 210 206 200 198 197 198 201
325 327 327 329 343 346 336 329 322 326 336 318 327 223 206 185 186 188 185 190 198 202 209 230 219 214 203 199 205 204 210 204 212 197 205 207 209 208 202 198 196 196 198
329 330 330 329 342 352 343 337 330 329 349 336 10 0 43 168 162 175 178 191 204 208 210 217 220 195 200 141 165 197 200 213 209 206 200 206 205 211 209 205 201 199 199
331 335 335 336 353 352 349 344 338 332 340 0 360 18 33 42 41 45 67 65 65 191 200 221 209 178 147 177 181 168 215 215 219 191 189 197 204 210 211 209 208 205 202
338 335 339 349 348 346 359 348 346 338 344 2 6 354 46 43 50 37 29 18 48 80 81 225 187 131 165 178 193 181 214 203 221 164 190 189 194 206 211 215 218 212 211
339 341 344 351 350 342 355 354 355 341 351 352 5 1 27 28 20 30 26 26 30 36 63 356 348 163 191 202 187 180 162 142 238 195 195 219 188 209 203 201 211 212 208
342 343 343 351 348 345 358 352 358 343 345 351 352 359 6 22 19 360 9 23 33 23 44 36 318 337 328 40 343 201 209 200 208 229 126 228 155 224 200 212 204 209 208
344 341 341 351 344 350 354 354 358 346 351 347 349 352 6 344 8 356 341 13 34 13 12 354 343 318 313 327 325 313 313 264 32 342 92 197 134 218 91 271 236 214 211
337 342 340 346 346 350 352 353 2 357 342 339 341 347 354 1 335 359 358 351 13 7 318 315 296 287 291 286 271 292 256 126 255 245 208 145 180 161 188 214 203 212 220
333 338 339 348 345 346 348 352 360 350 343 347 337 333 356 331 6 346 351 358 349 355 330 333 341 341 322 276 276 235 252 237 175 335 215 181 150 148 263 189 189 200 166